When you browse on this site, cookies collect data to enhance your experience and personalize the content and advertising you see.
Visit our Privacy Policy to learn more. By continuing to use the site, you agree to this use of cookies and data.
  • In Hungary
  • List of Countries
  • For 7 days
  • Water Temperature
  • Satellite Maps
  • Weather Map
  • News
  • Weather Widgets
  • user-avatar
    Login

    Hourly Weather Huddersfield

    Today, 15 December, Saturday

    Time Temperature Precipitation Wind Pressure Humidity
    00:00 -2°C° 0 mm 5 mps 748 mmHg 82%
    01:00 -2°C° 0 mm 5 mps 747 mmHg 80%
    02:00 -3°C° 0 mm 6 mps 747 mmHg 77%
    03:00 -3°C° 0 mm 6 mps 746 mmHg 75%
    04:00 -3°C° 0 mm 7 mps 746 mmHg 75%
    05:00 -3°C° 0 mm 7 mps 745 mmHg 74%
    06:00 -3°C° 0 mm 7 mps 744 mmHg 74%
    07:00 -3°C° 0.1 mm 7 mps 744 mmHg 75%
    08:00 -4°C° 0.1 mm 8 mps 743 mmHg 76%
    09:00 -4°C° 0.1 mm 8 mps 742 mmHg 77%
    10:00 -4°C° 0.1 mm 9 mps 741 mmHg 76%
    11:00 -3°C° 0.1 mm 9 mps 740 mmHg 76%
    12:00 -3°C° 0.1 mm 10 mps 739 mmHg 75%
    13:00 -3°C° 1 mm 10 mps 737 mmHg 78%
    14:00 -3°C° 1 mm 10 mps 736 mmHg 81%
    15:00 -3°C° 1 mm 10 mps 735 mmHg 84%
    16:00 -3°C° 2 mm 10 mps 733 mmHg 85%
    17:00 -2°C° 2 mm 10 mps 732 mmHg 87%
    18:00 -2°C° 2 mm 10 mps 730 mmHg 88%
    19:00 0°C° 1.2 mm 9 mps 729 mmHg 89%
    20:00 +1°C° 1.2 mm 9 mps 727 mmHg 90%
    21:00 +2°C° 1.2 mm 8 mps 726 mmHg 91%
    22:00 +2°C° 0.4 mm 8 mps 726 mmHg 91%
    23:00 +4°C° 0.4 mm 8 mps 726 mmHg 90%

    Tomorrow, 16 December, Sunday

    Time Temperature Precipitation Wind Pressure Humidity
    00:00 +4°C° 0.4 mm 8 mps 726 mmHg 90%
    01:00 +3°C° 0.5 mm 9 mps 727 mmHg 85%
    02:00 +3°C° 0.5 mm 9 mps 728 mmHg 80%
    03:00 +3°C° 0.5 mm 10 mps 729 mmHg 75%
    04:00 +2°C° 0 mm 9 mps 730 mmHg 76%
    05:00 +2°C° 0 mm 8 mps 731 mmHg 78%
    06:00 +3°C° 0 mm 6 mps 732 mmHg 79%
    07:00 +2°C° 0 mm 6 mps 733 mmHg 81%
    08:00 +2°C° 0 mm 5 mps 734 mmHg 83%
    09:00 +3°C° 0 mm 4 mps 735 mmHg 85%
    10:00 +3°C° 0 mm 4 mps 735 mmHg 83%
    11:00 +4°C° 0 mm 4 mps 735 mmHg 82%
    12:00 +5°C° 0 mm 4 mps 736 mmHg 80%
    13:00 +4°C° 0 mm 4 mps 736 mmHg 82%
    14:00 +4°C° 0 mm 3 mps 736 mmHg 84%
    15:00 +4°C° 0 mm 3 mps 736 mmHg 87%
    16:00 +3°C° 0.1 mm 3 mps 736 mmHg 88%
    17:00 +3°C° 0.1 mm 3 mps 736 mmHg 90%
    18:00 +4°C° 0.1 mm 2 mps 737 mmHg 92%
    19:00 +4°C° 0 mm 2 mps 737 mmHg 92%
    20:00 +3°C° 0 mm 2 mps 737 mmHg 92%
    21:00 +3°C° 0 mm 2 mps 737 mmHg 92%
    22:00 +3°C° 0 mm 2 mps 738 mmHg 91%
    23:00 +3°C° 0 mm 2 mps 738 mmHg 91%

    Day after tomorrow, 17 December, Monday

    Time Temperature Precipitation Wind Pressure Humidity
    00:00 +2°C° 0 mm 2 mps 739 mmHg 90%
    01:00 +1°C° 0 mm 3 mps 739 mmHg 90%
    02:00 +1°C° 0 mm 3 mps 739 mmHg 90%
    03:00 +1°C° 0 mm 3 mps 740 mmHg 90%
    04:00 +1°C° 0 mm 3 mps 740 mmHg 90%
    05:00 +1°C° 0 mm 3 mps 741 mmHg 90%
    06:00 +1°C° 0 mm 3 mps 741 mmHg 90%
    07:00 +1°C° 0 mm 3 mps 742 mmHg 90%
    08:00 +1°C° 0 mm 3 mps 743 mmHg 90%
    09:00 +1°C° 0 mm 3 mps 743 mmHg 90%
    10:00 +2°C° 0 mm 3 mps 743 mmHg 87%
    11:00 +3°C° 0 mm 3 mps 744 mmHg 85%
    12:00 +4°C° 0 mm 3 mps 744 mmHg 82%
    13:00 +4°C° 0 mm 4 mps 744 mmHg 84%
    14:00 +4°C° 0 mm 4 mps 743 mmHg 86%
    15:00 +4°C° 0 mm 4 mps 743 mmHg 88%
    16:00 +4°C° 0 mm 4 mps 743 mmHg 89%
    17:00 +3°C° 0 mm 5 mps 743 mmHg 90%
    18:00 +3°C° 0 mm 5 mps 743 mmHg 90%
    19:00 +4°C° 0.1 mm 6 mps 743 mmHg 91%
    20:00 +4°C° 0.1 mm 6 mps 742 mmHg 91%
    21:00 +5°C° 0.1 mm 7 mps 742 mmHg 91%
    22:00 +5°C° 0 mm 7 mps 742 mmHg 90%
    23:00 +6°C° 0 mm 7 mps 741 mmHg 89%

    18 December, Tuesday

    Time Temperature Precipitation Wind Pressure Humidity
    00:00 +6°C° 0 mm 7 mps 741 mmHg 89%
    01:00 +8°C° 0 mm 7 mps 741 mmHg 88%
    02:00 +8°C° 0 mm 7 mps 740 mmHg 88%
    03:00 +8°C° 0 mm 7 mps 740 mmHg 87%
    04:00 +7°C° 0 mm 8 mps 740 mmHg 87%
    05:00 +7°C° 0 mm 8 mps 739 mmHg 86%
    06:00 +7°C° 0 mm 8 mps 739 mmHg 85%
    07:00 +7°C° 0 mm 9 mps 738 mmHg 84%
    08:00 +7°C° 0 mm 9 mps 737 mmHg 82%
    09:00 +6°C° 0 mm 10 mps 736 mmHg 81%
    10:00 +6°C° 0.4 mm 10 mps 735 mmHg 79%
    11:00 +6°C° 0.4 mm 11 mps 735 mmHg 77%
    12:00 +6°C° 0.4 mm 11 mps 734 mmHg 76%
    13:00 +6°C° 0.7 mm 11 mps 733 mmHg 77%
    14:00 +6°C° 0.7 mm 11 mps 732 mmHg 78%
    15:00 +5°C° 0.7 mm 10 mps 732 mmHg 79%
    16:00 +5°C° 1 mm 10 mps 731 mmHg 81%
    17:00 +5°C° 1 mm 9 mps 731 mmHg 82%
    18:00 +5°C° 1 mm 9 mps 731 mmHg 84%
    19:00 +5°C° 1.8 mm 8 mps 731 mmHg 86%
    20:00 +5°C° 1.8 mm 7 mps 731 mmHg 88%
    21:00 +5°C° 1.8 mm 6 mps 731 mmHg 90%
    22:00 +6°C° 0.5 mm 5 mps 731 mmHg 89%
    23:00 +5°C° 0.5 mm 5 mps 731 mmHg 88%

    19 December, Wednesday

    Time Temperature Precipitation Wind Pressure Humidity
    00:00 +5°C° 0.5 mm 4 mps 732 mmHg 87%
    01:00 +5°C° 0.1 mm 4 mps 732 mmHg 87%
    02:00 +5°C° 0.1 mm 4 mps 733 mmHg 87%
    03:00 +4°C° 0.1 mm 4 mps 733 mmHg 87%
    04:00 +4°C° 0 mm 4 mps 734 mmHg 87%
    05:00 +4°C° 0 mm 4 mps 734 mmHg 88%
    06:00 +4°C° 0 mm 4 mps 735 mmHg 88%
    07:00 +3°C° 0 mm 4 mps 735 mmHg 87%
    08:00 +3°C° 0 mm 4 mps 736 mmHg 87%
    09:00 +3°C° 0 mm 4 mps 736 mmHg 87%
    10:00 +4°C° 0 mm 4 mps 736 mmHg 83%
    11:00 +3°C° 0 mm 5 mps 737 mmHg 80%
    12:00 +5°C° 0 mm 5 mps 737 mmHg 76%
    13:00 +5°C° 0 mm 5 mps 737 mmHg 77%
    14:00 +5°C° 0 mm 5 mps 737 mmHg 78%
    15:00 +5°C° 0 mm 5 mps 737 mmHg 79%
    16:00 +3°C° 0 mm 5 mps 737 mmHg 80%
    17:00 +3°C° 0 mm 5 mps 737 mmHg 81%
    18:00 +3°C° 0 mm 5 mps 738 mmHg 82%
    19:00 +3°C° 0.1 mm 6 mps 738 mmHg 82%
    20:00 +3°C° 0.1 mm 6 mps 738 mmHg 82%
    21:00 +3°C° 0.1 mm 6 mps 738 mmHg 82%
    22:00 +3°C° 0 mm 6 mps 738 mmHg 83%
    23:00 +3°C° 0 mm 6 mps 738 mmHg 84%

    20 December, Thursday

    Time Temperature Precipitation Wind Pressure Humidity
    00:00 +3°C° 0 mm 6 mps 738 mmHg 85%
    01:00 +3°C° 0 mm 5 mps 739 mmHg 85%
    02:00 +3°C° 0 mm 5 mps 739 mmHg 86%
    03:00 +3°C° 0 mm 5 mps 739 mmHg 86%
    04:00 +3°C° 0 mm 5 mps 739 mmHg 86%
    05:00 +3°C° 0 mm 5 mps 740 mmHg 87%
    06:00 +2°C° 0 mm 5 mps 740 mmHg 87%
    07:00 +3°C° 0.1 mm 5 mps 740 mmHg 87%
    08:00 +3°C° 0.1 mm 5 mps 740 mmHg 87%
    09:00 +3°C° 0.1 mm 5 mps 741 mmHg 87%
    10:00 +3°C° 0.1 mm 5 mps 741 mmHg 85%
    11:00 +5°C° 0.1 mm 5 mps 742 mmHg 83%
    12:00 +5°C° 0.1 mm 5 mps 742 mmHg 81%
    13:00 +5°C° 0.1 mm 5 mps 742 mmHg 81%
    14:00 +5°C° 0.1 mm 4 mps 742 mmHg 82%
    15:00 +5°C° 0.1 mm 4 mps 742 mmHg 83%
    16:00 +5°C° 0 mm 3 mps 743 mmHg 84%
    17:00 +4°C° 0 mm 3 mps 743 mmHg 86%
    18:00 +3°C° 0 mm 3 mps 743 mmHg 88%
    19:00 +3°C° 0 mm 3 mps 743 mmHg 88%
    20:00 +3°C° 0 mm 4 mps 743 mmHg 88%
    21:00 +3°C° 0 mm 4 mps 742 mmHg 87%
    22:00 +3°C° 0 mm 5 mps 741 mmHg 88%
    23:00 +3°C° 0 mm 5 mps 741 mmHg 88%
    Show more